Regional Weather Roundup
Issued by NWS

Home | Current Version | Previous Version | Graphics & Text | Print | Product List | Glossary On
Versions: 1 2 3 4 5 6 7 8 9 10 11 12 13 14 15 16 17 18 19 20 21 22 23 24 25 26 27 28 29 30 31 32 33 34 35 36 37 38 39 40 41 42 43 44 45 46 47 48 49 50
378
ASUS45 KCYS 191710
RWRWY

WYOMING REGIONAL WEATHER ROUNDUP
NATIONAL WEATHER SERVICE CHEYENNE WY
1000 AM MST SUN NOV 19 2017

NOTE:  "FAIR" INDICATES FEW OR NO CLOUDS BELOW 12,000 FEET
WITH NO SIGNIFICANT WEATHER AND/OR OBSTRUCTIONS TO VISIBILITY.

WYZ001-191800-
YELLOWSTONE NATIONAL PARK

CITY           SKY/WX    TMP DP  RH WIND       PRES   REMARKS
LK YELLOWSTONE   N/A     21  12  68 CALM      30.19F
W YELLOWSTONE  NOT AVBL

$$
WYZ002>013-054>058-071-098>099-191800-
NORTHERN WYOMING

CITY           SKY/WX    TMP DP  RH WIND       PRES   REMARKS
JACKSON        LGT SNOW  17  14  88 N3          N/A  FOG
CODY           FAIR      34  16  47 NE6       30.01F WCI  29
GREYBULL       FAIR      27  21  78 CALM      30.05F
WORLAND        FAIR      29  22  75 SW5       30.04S WCI  24
SHERIDAN       FAIR      33  24  69 CALM      29.92F
BUFFALO        FAIR      33  19  56 W6        29.94F WCI  28
GILLETTE       FAIR      43  16  33 SW16      29.94F
HULETT         FAIR      41  18  38 SW14G21   29.96F
NEWCASTLE      FAIR      36  21  55 SE9       30.02F WCI  29

$$
WYZ014>020-022>026-101>103-191800-
CENTRAL WYOMING

CITY           SKY/WX    TMP DP  RH WIND       PRES   REMARKS
BIG PINEY      FAIR      14  11  87 CALM      30.23F
PINEDALE       FAIR      23  18  80 NW7       30.22S WCI  15
DUBOIS         FAIR      34   5  29 NW21G26   30.07F WCI  22
LANDER         FAIR      23  17  78 NW3       30.08S
RIVERTON       FAIR      27  20  75 W3        30.08F
CASPER         FAIR      36  16  44 SW23G31   30.08S WCI  24
DOUGLAS        FAIR      43  22  43 NW5       30.03F

$$
WYZ021-027>030-104>119-191800-
SOUTHERN WYOMING

CITY           SKY/WX    TMP DP  RH WIND       PRES   REMARKS
EVANSTON       FAIR      22  15  75 S3        30.23S
FORT BRIDGER   FAIR      17  15  93 CALM      30.26S
ROCK SPRINGS   FAIR      18  13  80 S5        30.23F WCI  11
DIXON          FAIR      19  12  73 NW3       30.30S
RAWLINS        FAIR      33  16  49 W6        30.20F WCI  28
SARATOGA       FAIR      28  12  50 SE14      30.23S WCI  17
LARAMIE        FAIR      35  13  40 SW24G32   30.14S WCI  23
CHEYENNE       FAIR      47   9  21 W29G37    30.09F
TORRINGTON     FAIR      49  14  24 W12G20    30.05F
PINE BLUFFS    FAIR      43  21  42 MISG      30.10F

$$




USA.gov is the U.S. government's official web portal to all federal, state and local government web resources and services.